Flag for France Weather past 2 weeks in Aurillac, France

Now
64 °F

Low clouds.


Feels Like: 64 °F
Forecast: 52 / 90 °F
Wind: 7 mph from Northwest

Location: Aurillac

Current Time: Aug 4, 2015 at 10:17:58 AM

Latest Report: Aug 4, 2015 at 9:00 AM


Visibility: 4 mi

Pressure: 30.04 "Hg (27.91 "Hg at 627m altitude)

Humidity: 94%

Dew point: 62 °F

Location of AurillacLocation

Historic Weather in Aurillac — Graph

°F

Aurillac temperature yesterday

Maximum temperature yesterday: 90 °F (at 5:00 PM)
Minimum temperature yesterday: 56 °F (at 3:00 AM)
Average temperature yesterday: 75 °F

Past Weeks' High & Low Weather Summary

 TemperatureHumidityPressure
High90 °F (Aug 3, 5:00 PM)95% (Jul 23, 1:00 AM)30.12 "Hg (Jul 23, 1:00 AM)
Low45 °F (Jul 31, 6:00 AM)20% (Aug 3, 4:00 PM)29.72 "Hg (Jul 24, 6:00 PM)
Average65 °F65%29.97 "Hg
* Reported Jul 20 9:00 AM — Aug 4 9:00 AM, Aurillac, Weather by CustomWeather, © 2015

Note: Actual official high and low records may vary slightly from our data, if they occured in-between our weather recording intervals... More about our weather records

Advertising

Aurillac weather history for previous 24 hours

 ConditionsComfort  
Time TempWeatherWind HumidityBarometerVisibility
9:00 AM
Tue, Aug 4
64 °FLow clouds.7 mph94%30.04 "Hg4 mi
8:00 AM63 °FLow clouds.6 mph92%30.02 "Hg8 mi
7:00 AM66 °FOvercast.5 mph82%29.97 "Hg16 mi
6:00 AM67 °FMild.5 mph76%30.00 "Hg34 mi
5:00 AM67 °FOvercast.5 mph70%29.98 "Hg37 mi
4:00 AM71 °FOvercast.2 mph60%29.96 "Hg37 mi
3:00 AM70 °FPassing clouds.5 mph59%29.94 "Hg37 mi
2:00 AM73 °FMild.6 mph51%29.90 "Hg37 mi
1:00 AM75 °FOvercast.15 mph47%29.93 "Hg37 mi
12:00 AM78 °FOvercast.14 mph40%29.94 "Hg37 mi
10:00 PM
Mon, Aug 3
75 °FMild.5 mph52%29.92 "Hg37 mi
9:00 PM79 °FWarm.5 mph46%29.87 "Hg37 mi
8:00 PM87 °FPartly sunny.1 mph29%29.85 "Hg37 mi
7:00 PM90 °FHot.7 mph25%29.84 "Hg31 mi
6:00 PM90 °FHot.5 mph24%29.84 "Hg34 mi
5:00 PM90 °FSunny.5 mph21%29.87 "Hg31 mi
4:00 PM90 °FHot.3 mph20%29.89 "Hg12 mi
3:00 PM89 °FSunny.2 mph24%29.91 "Hg31 mi
2:00 PM87 °FPassing clouds.6 mph23%29.93 "Hg31 mi
1:00 PM84 °FPassing clouds.8 mph26%29.96 "Hg31 mi
12:00 PM81 °FPassing clouds.6 mph35%29.98 "Hg31 mi
11:00 AM78 °FPassing clouds.6 mph37%30.00 "Hg31 mi
10:00 AM73 °FSunny.6 mph48%30.01 "Hg31 mi
Weather by CustomWeather, © 2015

See weather overviewHow to use our weather pages